sat.trackr.live / text

‹ back to catalog

STARLINK-4357

NORAD 53662 · 2022-105Q

PAYLOAD ACTIVE UNKNOWN

§ Identity

Operator
Country
US
Launch date
2022-08-31
Launch site
AFWTR
Launch vehicle
Mass (kg)
RCS (m²)

Purposes: comms

External: N2YO · Heavens-Above · Gunter

§ Orbital elements

Epoch: 2026-09-20T21:55:10.185312Z

Period
93.61 min
Inclination
97.4933°
Eccentricity
0.0003611
Mean motion
15.38274684 rev/d
Perigee alt
448.7 km
Apogee alt
453.7 km
Semi-major
6,829.3 km
B*
3.2320e-4
RAAN
151.6094°
Arg perigee
117.1647°
Mean anomaly
242.9966°
Rev number
22,322

§ Raw data

STARLINK-43571 53662U 22105Q   26263.91331233  .00012112  00000+0  32320-3 0  99952 53662  97.4933 151.6094 0003611 117.1647 242.9966 15.38274684223220

JSON: /api/v1/satellites/53662 · /tle

For live sub-satellite position, see the globe view (requires WebGL).

§ Visibility from observer

Set your observer location to see the next 7 days of passes ≥ 10°. The values pass through the URL so the page stays shareable.

No JS? Fill the form by hand. The geolocation button needs JavaScript.